Location: Kerberlivit
(48.2787°N, 4.5413°W)
Time: 07:20:07
(UTC+00:00)

SJ-12 - Pass Details

Date: 18 February 2020
Orbit: 569 x 584 km, 97.7° (Epoch: 31 March)

Event Time Altitude Azimuth Distance (km) Brightness Sun altitude
Rises 05:57:47 0° 9° (N) 2,812 7.5 -14.5°
Reaches altitude 10° 05:59:58 10° 6° (N) 1,910 6.6 -14.1°
Maximum altitude 06:04:02 58° 288° (WNW) 688 4.0 -13.4°
Drops below altitude 10° 06:08:05 10° 209° (SSW) 1,901 6.3 -12.8°
Sets 06:10:15 0° 205° (SSW) 2,797 7.2 -12.4°
